This is the latest recevied weather packets stored in our database for station/object KC0SIQ-13. If no packets are shown the sender has not sent any weather packets the latest 10 day(s).
| Time | Temp. | Humidity | Pressure | Rain* | Wind** | Luminosity | Snow |
|---|---|---|---|---|---|---|---|
| 1777908160 | 18.33° C | 37% | 1006.4 hPa | 0 mm | - | 174 W/m² | - |
| 1777907856 | 17.22° C | 39% | 1006.2 hPa | 0 mm | - | 165 W/m² | - |
| 1777907552 | 16.67° C | 44% | 1006.4 hPa | 0 mm | - | 161 W/m² | - |
| 1777907248 | 16.11° C | 45% | 1006.6 hPa | 0 mm | - | 157 W/m² | - |
| 1777906945 | 15.56° C | 47% | 1006.3 hPa | 0 mm | - | 151 W/m² | - |
| 1777906643 | 15° C | 48% | 1006.3 hPa | 0 mm | - | 142 W/m² | - |
| 1777906338 | 14.44° C | 48% | 1006.6 hPa | 0 mm | - | 152 W/m² | - |
| 1777906035 | 13.89° C | 50% | 1006.7 hPa | 0 mm | - | 264 W/m² | - |
| 1777905731 | 13.33° C | 52% | 1006.6 hPa | 0 mm | - | 209 W/m² | - |
| 1777905428 | 12.78° C | 52% | 1006.8 hPa | 0 mm | - | 197 W/m² | - |
| 1777905127 | 12.22° C | 53% | 1006.7 hPa | 0 mm | - | 140 W/m² | - |
| 1777904823 | 12.22° C | 54% | 1006.8 hPa | 0 mm | - | 146 W/m² | - |
| 1777904520 | 11.67° C | 55% | 1006.6 hPa | 0 mm | - | 109 W/m² | - |
| 1777904216 | 11.67° C | 56% | 1007 hPa | 0 mm | - | 107 W/m² | - |
| 1777903914 | 11.11° C | 55% | 1007 hPa | 0 mm | - | 104 W/m² | - |
| 1777903611 | 10.56° C | 58% | 1006.8 hPa | 0 mm | - | 98 W/m² | - |
| 1777903306 | 10.56° C | 58% | 1006.9 hPa | 0 mm | - | 96 W/m² | - |
| 1777903003 | 10° C | 60% | 1006.8 hPa | 0 mm | - | 92 W/m² | - |
| 1777902699 | 9.44° C | 61% | 1006.6 hPa | 0 mm | - | 87 W/m² | - |
| 1777902397 | 8.89° C | 63% | 1006.8 hPa | 0 mm | - | 80 W/m² | - |
| 1777902093 | 8.89° C | 64% | 1006.8 hPa | 0 mm | - | 72 W/m² | - |
| 1777901792 | 8.33° C | 65% | 1007 hPa | 0 mm | - | 63 W/m² | - |
| 1777901489 | 7.78° C | 65% | 1007.1 hPa | 0 mm | - | 58 W/m² | - |
| 1777901186 | 7.78° C | 65% | 1007 hPa | 0 mm | - | 58 W/m² | - |
| 1777900884 | 7.22° C | 67% | 1007.3 hPa | 0 mm | - | 53 W/m² | - |
* Rain latest hour (hover to see other rain measurements)
** Current wind speed in m/s (hover to see current wind gust speed)